Weather History for Hickory, NC

Change the Weather History Date:

Tuesday, May 15, 2012

  Actual Average Record
Temperature  
Mean Temperature 66 °F -  
Max Temperature 77 °F 76 °F 90 °F (1956)
Min Temperature 57 °F 55 °F 42 °F (1959)
Cooling Degree Days 1    
Growing Degree Days 16 (Base 50)    
Moisture  
Dew Point 61 °F    
Average Humidity 87    
Maximum Humidity 100    
Minimum Humidity 64    
Precipitation  
Precipitation 0.00 in - - ()
Sea Level Pressure  
Sea Level Pressure 29.96 in    
Wind  
Wind Speed 1 mph (NNW)    
Max Wind Speed 6 mph    
Max Gust Speed -    
Visibility 6 miles    
Events Fog , Rain    
Averages and records for this station are not official NWS values.
T = Trace of Precipitation, MM = Missing Value Source: NWS Daily Summary

Daily Weather History Graph

Daily Weather History Graph

Search for Another Location

Airport:

Trip Planner

Search our weather history database for the weather conditions in past years. The results will help you decide how hot, cold, wet, or windy it might be!

Date:

Astronomy

May. 15, 2012 Rise Set
Actual Time 6:19 AM EDT 8:24 PM EDT
Civil Twilight 5:51 AM EDT 8:52 PM EDT
Nautical Twilight 5:16 AM EDT 9:27 PM EDT
Astronomical Twilight 4:39 AM EDT 10:05 PM EDT
Moon 3:12 AM EDT (5/15) 3:49 PM EDT (5/15)
Length of Visible Light 15h 01m
Length of Day
14h 04m
Waning Crescent, 24% of the Moon is Illuminated
May 15
Waning Crescent
May 20
New
May 28
First Quarter
Jun 4
Full
Jun 11
Last Quarter

Hourly Weather History & Observations

Time (EDT) Temp. Dew Point Humidity Pressure Visibility Wind Dir Wind Speed Gust Speed Precip Events Conditions
3:23 AM 60.8 °F 59.0 °F 94% 29.98 in 10.0 mi Calm Calm - N/A   Overcast
3:35 AM 60.8 °F 57.2 °F 88% 29.98 in 10.0 mi Calm Calm - N/A   Mostly Cloudy
3:53 AM 59.0 °F 57.9 °F 96% 29.92 in 10.0 mi WNW 3.5 mph - N/A   Scattered Clouds
4:43 AM 59.0 °F 57.2 °F 94% 29.97 in 5.0 mi Calm Calm - N/A   Mostly Cloudy
4:53 AM 59.0 °F 57.9 °F 96% 29.91 in 2.0 mi Calm Calm - N/A   Scattered Clouds
5:04 AM 57.2 °F 55.4 °F 94% 29.96 in 5.0 mi North 3.5 mph - N/A   Mostly Cloudy
5:09 AM 59.0 °F 57.2 °F 94% 29.97 in 1.8 mi Calm Calm - N/A   Mostly Cloudy
5:15 AM 59.0 °F 57.2 °F 94% 29.96 in 0.5 mi NNW 3.5 mph - N/A Fog Fog
5:22 AM 59.0 °F 57.2 °F 94% 29.97 in 0.2 mi Calm Calm - N/A Fog Fog
5:53 AM 59.0 °F 57.9 °F 96% 29.92 in 0.2 mi WNW 4.6 mph - N/A Fog Fog
6:48 AM 59.0 °F 59.0 °F 100% 29.97 in 0.2 mi Variable 3.5 mph - N/A Fog Fog
6:53 AM 59.0 °F 59.0 °F 100% 29.92 in 0.2 mi Calm Calm - N/A Fog Fog
7:26 AM 60.8 °F 59.0 °F 94% 29.98 in 0.8 mi West 3.5 mph - N/A   Mist
7:48 AM 60.8 °F 59.0 °F 94% 29.99 in 0.2 mi WNW 3.5 mph - N/A Fog Fog
7:53 AM 60.1 °F 59.0 °F 96% 29.94 in 0.2 mi Calm Calm - N/A Fog Fog
8:22 AM 60.8 °F 60.8 °F 100% 30.00 in 0.5 mi Calm Calm - N/A Fog Fog
8:49 AM 60.8 °F 60.8 °F 100% 30.00 in 1.0 mi Calm Calm - N/A   Mist
8:53 AM 61.0 °F 60.1 °F 97% 29.95 in 1.2 mi Calm Calm - N/A   Overcast
9:53 AM 63.0 °F 60.1 °F 90% 29.96 in 2.5 mi East 3.5 mph - N/A   Overcast
10:00 AM 62.6 °F 60.8 °F 94% 30.02 in 6.0 mi Calm Calm - N/A   Overcast
10:53 AM 64.9 °F 61.0 °F 87% 29.99 in 10.0 mi Calm Calm - N/A   Overcast
11:25 AM 64.4 °F 60.8 °F 88% 30.04 in 10.0 mi Calm Calm - N/A   Overcast
11:53 AM 64.9 °F 61.0 °F 87% 29.99 in 10.0 mi South 3.5 mph - N/A   Overcast
12:09 PM 66.2 °F 60.8 °F 83% 30.04 in 10.0 mi Calm Calm - N/A   Overcast
12:16 PM 66.2 °F 62.6 °F 88% 30.03 in 10.0 mi Calm Calm - N/A   Overcast
12:53 PM 69.1 °F 61.0 °F 75% 29.98 in 10.0 mi Calm Calm - N/A   Overcast
1:12 PM 69.8 °F 62.6 °F 78% 30.02 in 10.0 mi Calm Calm - N/A   Overcast
1:53 PM 70.0 °F 62.1 °F 76% 29.96 in 10.0 mi Calm Calm - N/A   Overcast
2:53 PM 73.0 °F 63.0 °F 71% 29.94 in 10.0 mi North 4.6 mph - N/A   Scattered Clouds
3:18 PM 73.4 °F 62.6 °F 69% 29.98 in 10.0 mi North 3.5 mph - N/A   Mostly Cloudy
3:53 PM 75.0 °F 62.1 °F 64% 29.92 in 10.0 mi Calm Calm - N/A   Mostly Cloudy
4:02 PM 75.2 °F 62.6 °F 65% 29.96 in 10.0 mi North 3.5 mph - N/A   Scattered Clouds
4:53 PM 73.9 °F 63.0 °F 68% 29.91 in 10.0 mi North 5.8 mph - N/A   Partly Cloudy
5:53 PM 73.0 °F 63.0 °F 71% 29.92 in 10.0 mi NE 3.5 mph - N/A   Scattered Clouds
6:53 PM 73.0 °F 64.0 °F 73% 29.89 in 10.0 mi North 3.5 mph - N/A   Clear
7:53 PM 73.0 °F 64.0 °F 73% 29.92 in 10.0 mi Calm Calm - N/A   Partly Cloudy
8:53 PM 69.1 °F 63.0 °F 81% 29.93 in 10.0 mi Calm Calm - N/A   Scattered Clouds
9:53 PM 68.0 °F 64.0 °F 87% 29.93 in 10.0 mi Calm Calm - N/A   Mostly Cloudy
10:53 PM 66.9 °F 64.0 °F 90% 29.94 in 10.0 mi Calm Calm - N/A   Mostly Cloudy
11:53 PM 66.0 °F 64.0 °F 93% 29.94 in 10.0 mi NW 4.6 mph - 0.00 in Rain Light Rain